GEOSCAN 5 (RS92S5)

Last updated on Thu Sep 10 2026 00:03:13 GMT+0000 (Coordinated Universal Time)

1 64891U 25155R 26252.59917675 .00011622 00000+0 34051-3 0 9999 2 64891 97.4631 222.8880 0004008 224.1560 135.9364 15.35367506 93769
UTC large
Height (km)
Speed (km/s)
/
Latitude / Longitude
Inclination (degrees)
Orbital Period (minutes)
Azimuth
Elevation
Range (km)
Doppler Factor

Next 0 passes for location: London (51.5072 / 0.1276)

No passes found over London.
GEOSCAN 5 (RS92S5)